UAE335 RPLL-OMDB

Flight info

Callsign UAE335
Flight time N/A
Altitude 34000
Route SIRCA2R SIRCA L628 ARESI/K0924F320 L628 PCA G474 ANINA/N0498F320 G474 VEMKO M633 TANEK L301 RAGMA N571 VUSET A454 PASOV B540 MIVEK P574 IMPED
Aircraft B77W/H-SDE1E2E3FGHIJ2J3J4J5M1RWXY/LB1D1

Departure

Time N/A
Airport Ninoy Aquino International Airport (RPLL)

Arrival

Time 2026-04-21 17:04
Airport Dubai International Airport (OMDB)
Time Latitude Longitude Altitude Speed Heading
2026-04-21 11:29 13.87813 100.02012 33757 ft 515 kts 281°
2026-04-21 11:30 13.89032 99.94751 33757 ft 515 kts 281°
2026-04-21 11:30 13.90240 99.87549 33755 ft 514 kts 280°
2026-04-21 11:31 13.91453 99.80305 33752 ft 514 kts 280°
2026-04-21 11:31 13.92666 99.73045 33755 ft 514 kts 280°
2026-04-21 11:32 13.93874 99.65803 33750 ft 513 kts 280°
2026-04-21 11:32 13.95078 99.58566 33748 ft 513 kts 280°
2026-04-21 11:33 13.96281 99.51323 33749 ft 513 kts 280°
2026-04-21 11:33 13.97482 99.44083 33749 ft 513 kts 280°
2026-04-21 11:34 13.98286 99.39231 33756 ft 513 kts 280°
2026-04-21 11:34 13.99879 99.29583 33752 ft 514 kts 280°
2026-04-21 11:35 14.01076 99.22323 33764 ft 514 kts 280°
2026-04-21 11:35 14.02269 99.15073 33764 ft 514 kts 280°
2026-04-21 11:36 14.03461 99.07815 33772 ft 514 kts 279°
2026-04-21 11:36 14.04651 99.00560 33782 ft 514 kts 279°
2026-04-21 11:37 14.05544 98.93262 33804 ft 513 kts 274°
2026-04-21 11:37 14.05987 98.85923 33791 ft 514 kts 273°
2026-04-21 11:38 14.06420 98.78576 33805 ft 513 kts 274°
2026-04-21 11:38 14.06884 98.71241 33799 ft 513 kts 274°
2026-04-21 11:39 14.07360 98.63902 33810 ft 513 kts 274°
2026-04-21 11:40 14.08553 98.45278 33816 ft 512 kts 274°
2026-04-21 11:41 14.09247 98.34301 33813 ft 512 kts 274°
2026-04-21 11:41 14.09704 98.27029 33810 ft 512 kts 273°
2026-04-21 11:42 14.10375 98.19686 33808 ft 512 kts 279°
2026-04-21 11:42 14.12029 98.12618 33807 ft 512 kts 284°
2026-04-21 11:43 14.13576 98.06673 33801 ft 512 kts 284°
2026-04-21 11:43 14.15689 97.98422 33802 ft 512 kts 284°
2026-04-21 11:44 14.17486 97.91263 33802 ft 513 kts 284°
2026-04-21 11:44 14.19250 97.84188 33804 ft 513 kts 283°
2026-04-21 11:45 14.21025 97.77063 33801 ft 514 kts 283°
2026-04-21 11:45 14.22801 97.69927 33805 ft 514 kts 283°
2026-04-21 11:46 14.24576 97.62788 33799 ft 514 kts 283°
2026-04-21 11:46 14.26051 97.56852 33797 ft 515 kts 283°
2026-04-21 11:47 14.28125 97.48495 33801 ft 515 kts 283°
2026-04-21 11:47 14.29900 97.41331 33801 ft 516 kts 283°
2026-04-21 11:48 14.31672 97.34165 33807 ft 516 kts 283°
2026-04-21 11:48 14.33443 97.26998 33810 ft 516 kts 283°
2026-04-21 11:49 14.35216 97.19815 33841 ft 518 kts 283°
2026-04-21 11:49 14.36989 97.12618 34047 ft 517 kts 283°
2026-04-21 11:50 14.37873 97.09023 34166 ft 516 kts 283°
2026-04-21 11:50 14.38755 97.05438 34261 ft 516 kts 283°
2026-04-21 11:50 14.40506 96.98311 34442 ft 516 kts 283°
2026-04-21 11:51 14.42265 96.91145 34625 ft 515 kts 283°
2026-04-21 11:51 14.43734 96.85151 34781 ft 514 kts 283°
2026-04-21 11:52 14.45768 96.76837 34954 ft 514 kts 283°
2026-04-21 11:52 14.47514 96.69692 35122 ft 513 kts 283°
2026-04-21 11:53 14.49256 96.62554 35274 ft 513 kts 283°
2026-04-21 11:53 14.50712 96.56578 35420 ft 512 kts 283°
2026-04-21 11:54 14.52448 96.49448 35540 ft 512 kts 283°
2026-04-21 11:54 14.54177 96.42331 35702 ft 511 kts 283°
2026-04-21 11:55 14.55904 96.35218 35842 ft 510 kts 283°
2026-04-21 11:55 14.57624 96.28122 35984 ft 509 kts 283°
2026-04-21 11:56 14.59341 96.21026 36087 ft 509 kts 283°
2026-04-21 11:56 14.61044 96.13978 36209 ft 509 kts 283°
2026-04-21 11:57 14.62754 96.06894 36321 ft 508 kts 283°
2026-04-21 11:57 14.64461 95.99811 36429 ft 508 kts 283°
2026-04-21 11:58 14.66163 95.92740 36543 ft 507 kts 283°
2026-04-21 11:58 14.67861 95.85674 36639 ft 507 kts 283°
2026-04-21 11:59 14.69558 95.78605 36731 ft 507 kts 283°
2026-04-21 11:59 14.71249 95.71547 36812 ft 506 kts 283°
2026-04-21 12:00 14.72938 95.64487 36899 ft 506 kts 283°
2026-04-21 12:00 14.74623 95.57437 36981 ft 505 kts 283°
2026-04-21 12:01 14.76305 95.50391 37062 ft 505 kts 283°
2026-04-21 12:01 14.77982 95.43350 37140 ft 505 kts 283°
2026-04-21 12:02 14.80495 95.32785 37230 ft 505 kts 283°
2026-04-21 12:03 14.82166 95.25750 37278 ft 505 kts 283°
2026-04-21 12:03 14.83835 95.18709 37338 ft 504 kts 283°
2026-04-21 12:04 14.85503 95.11667 37396 ft 504 kts 282°
2026-04-21 12:04 14.87167 95.04629 37462 ft 504 kts 282°
2026-04-21 12:05 14.88827 94.97597 37522 ft 503 kts 282°
2026-04-21 12:05 14.90482 94.90574 37591 ft 503 kts 282°
2026-04-21 12:06 14.92134 94.83555 37687 ft 501 kts 282°
2026-04-21 12:06 14.93764 94.76622 37809 ft 499 kts 282°
2026-04-21 12:07 14.95401 94.69648 37822 ft 499 kts 282°
2026-04-21 12:07 14.97035 94.62674 37825 ft 499 kts 282°
2026-04-21 12:08 14.98668 94.55696 37825 ft 499 kts 282°
2026-04-21 12:08 15.00300 94.48714 37828 ft 500 kts 282°
2026-04-21 12:09 15.01930 94.41728 37823 ft 500 kts 282°
2026-04-21 12:09 15.03558 94.34743 37825 ft 500 kts 282°
2026-04-21 12:10 15.05185 94.27750 37825 ft 500 kts 282°
2026-04-21 12:10 15.06809 94.20762 37827 ft 500 kts 282°
2026-04-21 12:11 15.08431 94.13768 37828 ft 500 kts 282°
2026-04-21 12:11 15.10051 94.06778 37827 ft 500 kts 282°
2026-04-21 12:12 15.11668 93.99785 37829 ft 500 kts 282°
2026-04-21 12:12 15.13284 93.92789 37829 ft 500 kts 282°
2026-04-21 12:13 15.14897 93.85797 37827 ft 500 kts 282°
2026-04-21 12:13 15.16509 93.78795 37831 ft 500 kts 282°
2026-04-21 12:14 15.18118 93.71797 37831 ft 500 kts 282°
2026-04-21 12:14 15.19724 93.64802 37830 ft 500 kts 282°
2026-04-21 12:15 15.21330 93.57797 37831 ft 500 kts 282°
2026-04-21 12:15 15.22933 93.50794 37830 ft 500 kts 282°
2026-04-21 12:16 15.24533 93.43792 37833 ft 500 kts 282°
2026-04-21 12:16 15.26133 93.36782 37833 ft 500 kts 282°
2026-04-21 12:17 15.27730 93.29774 37834 ft 500 kts 282°
2026-04-21 12:17 15.29325 93.22764 37836 ft 500 kts 282°
2026-04-21 12:18 15.30908 93.15798 37833 ft 500 kts 282°
2026-04-21 12:18 15.32509 93.08739 37834 ft 500 kts 282°
2026-04-21 12:19 15.34086 93.01775 37829 ft 500 kts 282°
2026-04-21 12:19 15.35683 92.94713 37838 ft 500 kts 282°
2026-04-21 12:20 15.37255 92.87750 37834 ft 500 kts 282°
2026-04-21 12:20 15.38837 92.80731 37836 ft 500 kts 282°
2026-04-21 12:21 15.40414 92.73725 37829 ft 500 kts 281°
2026-04-21 12:21 15.41990 92.66714 37830 ft 499 kts 281°
2026-04-21 12:22 15.43594 92.59710 37830 ft 499 kts 282°
2026-04-21 12:22 15.45324 92.52744 37829 ft 499 kts 283°
2026-04-21 12:23 15.47070 92.45781 37835 ft 499 kts 283°
2026-04-21 12:23 15.48796 92.38809 37829 ft 499 kts 282°
2026-04-21 12:24 15.50507 92.31842 37833 ft 499 kts 282°
2026-04-21 12:24 15.52216 92.24875 37836 ft 499 kts 282°
2026-04-21 12:25 15.53923 92.17907 37834 ft 498 kts 282°
2026-04-21 12:25 15.55629 92.10938 37835 ft 498 kts 282°
2026-04-21 12:26 15.57320 92.04020 37829 ft 498 kts 282°
2026-04-21 12:26 15.59029 91.97008 37830 ft 498 kts 282°
2026-04-21 12:27 15.60699 91.90086 37829 ft 498 kts 282°
2026-04-21 12:27 15.62375 91.83118 37829 ft 498 kts 282°
2026-04-21 12:28 15.64050 91.76149 37833 ft 498 kts 282°
2026-04-21 12:28 15.65722 91.69188 37833 ft 497 kts 282°
2026-04-21 12:29 15.67392 91.62224 37829 ft 497 kts 282°
2026-04-21 12:29 15.69060 91.55258 37829 ft 497 kts 282°
2026-04-21 12:30 15.70725 91.48298 37828 ft 497 kts 282°
2026-04-21 12:30 15.72387 91.41336 37828 ft 497 kts 281°
2026-04-21 12:31 15.74044 91.34383 37832 ft 496 kts 281°
2026-04-21 12:31 15.75699 91.27432 37827 ft 496 kts 281°
2026-04-21 12:32 15.77352 91.20480 37826 ft 496 kts 281°
2026-04-21 12:32 15.79002 91.13529 37827 ft 496 kts 281°
2026-04-21 12:33 15.80647 91.06586 37829 ft 495 kts 281°
2026-04-21 12:33 15.82292 90.99635 37829 ft 495 kts 281°
2026-04-21 12:34 15.83932 90.92691 37839 ft 495 kts 281°
2026-04-21 12:34 15.85559 90.85796 37837 ft 495 kts 281°
2026-04-21 12:35 15.87194 90.78857 37836 ft 495 kts 281°
2026-04-21 12:35 15.88826 90.71918 37837 ft 494 kts 281°
2026-04-21 12:36 15.90455 90.64980 37834 ft 494 kts 281°
2026-04-21 12:36 15.92082 90.58042 37837 ft 494 kts 281°
2026-04-21 12:37 15.93707 90.51101 37832 ft 494 kts 281°
2026-04-21 12:37 15.95328 90.44166 37826 ft 494 kts 281°
2026-04-21 12:38 15.96948 90.37225 37835 ft 494 kts 281°
2026-04-21 12:38 15.98565 90.30287 37835 ft 494 kts 281°
2026-04-21 12:39 16.00178 90.23355 37832 ft 494 kts 281°
2026-04-21 12:39 16.01791 90.16416 37827 ft 494 kts 281°
2026-04-21 12:40 16.03159 90.10664 37822 ft 494 kts 281°
2026-04-21 12:40 16.05118 90.02573 37826 ft 494 kts 281°
2026-04-21 12:41 16.06775 89.95701 37834 ft 493 kts 281°
2026-04-21 12:41 16.08436 89.88779 37839 ft 493 kts 281°
2026-04-21 12:42 16.09823 89.82985 37833 ft 493 kts 281°
2026-04-21 12:42 16.11476 89.76064 37836 ft 493 kts 281°
2026-04-21 12:43 16.13127 89.69149 37831 ft 492 kts 281°
2026-04-21 12:43 16.14774 89.62239 37840 ft 492 kts 281°
2026-04-21 12:44 16.16418 89.55328 37834 ft 492 kts 280°
2026-04-21 12:44 16.18058 89.48428 37830 ft 492 kts 280°
2026-04-21 12:45 16.19684 89.41572 37838 ft 491 kts 280°
2026-04-21 12:45 16.21319 89.34671 37837 ft 491 kts 280°
2026-04-21 12:46 16.22950 89.27775 37834 ft 491 kts 280°
2026-04-21 12:46 16.24578 89.20879 37826 ft 490 kts 280°
2026-04-21 12:47 16.26202 89.13992 37831 ft 490 kts 280°
2026-04-21 12:47 16.27828 89.07103 37833 ft 490 kts 280°
2026-04-21 12:48 16.29499 89.00228 37840 ft 490 kts 281°
2026-04-21 12:48 16.31184 88.93359 37831 ft 490 kts 281°
2026-04-21 12:49 16.32861 88.86492 37832 ft 489 kts 280°
2026-04-21 12:49 16.34531 88.79620 37828 ft 489 kts 280°
2026-04-21 12:50 16.36195 88.72754 37827 ft 489 kts 280°
2026-04-21 12:50 16.37858 88.65881 37829 ft 489 kts 280°
2026-04-21 12:51 16.39519 88.59011 37830 ft 489 kts 280°
2026-04-21 12:51 16.41174 88.52151 37828 ft 489 kts 280°
2026-04-21 12:52 16.42832 88.45272 37834 ft 489 kts 280°
2026-04-21 12:52 16.44484 88.38408 37827 ft 489 kts 280°
2026-04-21 12:53 16.46135 88.31536 37826 ft 489 kts 280°
2026-04-21 12:53 16.47770 88.24721 37829 ft 488 kts 280°
2026-04-21 12:54 16.49415 88.17853 37831 ft 488 kts 280°
2026-04-21 12:54 16.51057 88.10989 37833 ft 488 kts 280°
2026-04-21 12:55 16.52696 88.04121 37826 ft 488 kts 280°
2026-04-21 12:55 16.54335 87.97249 37829 ft 489 kts 280°
2026-04-21 12:56 16.55970 87.90381 37825 ft 489 kts 280°
2026-04-21 12:56 16.57605 87.83502 37827 ft 489 kts 280°
2026-04-21 12:57 16.59239 87.76617 37829 ft 489 kts 279°
2026-04-21 12:57 16.60870 87.69735 37825 ft 489 kts 279°
2026-04-21 12:58 16.62499 87.62846 37831 ft 489 kts 279°
2026-04-21 12:58 16.64128 87.55951 37827 ft 490 kts 279°
2026-04-21 12:59 16.65754 87.49057 37826 ft 490 kts 279°
2026-04-21 12:59 16.67379 87.42156 37827 ft 490 kts 279°
2026-04-21 13:00 16.69000 87.35261 37825 ft 490 kts 279°
2026-04-21 13:00 16.70617 87.28370 37825 ft 489 kts 279°
2026-04-21 13:01 16.72232 87.21478 37827 ft 489 kts 279°
2026-04-21 13:01 16.73845 87.14587 37830 ft 488 kts 279°
2026-04-21 13:02 16.75476 87.07713 37827 ft 488 kts 279°
2026-04-21 13:02 16.77925 86.97453 37822 ft 488 kts 279°
2026-04-21 13:03 16.79557 86.90583 37822 ft 487 kts 279°
2026-04-21 13:03 16.81183 86.83725 37822 ft 487 kts 279°
2026-04-21 13:04 16.82804 86.76871 37823 ft 486 kts 279°
2026-04-21 13:04 16.84421 86.70027 37821 ft 486 kts 279°
2026-04-21 13:05 16.86035 86.63183 37822 ft 485 kts 279°
2026-04-21 13:05 16.87643 86.56353 37821 ft 484 kts 279°
2026-04-21 13:06 16.89249 86.49523 37816 ft 484 kts 279°
2026-04-21 13:06 16.90850 86.42703 37818 ft 483 kts 279°
2026-04-21 13:07 16.92448 86.35887 37819 ft 483 kts 279°
2026-04-21 13:07 16.94042 86.29073 37821 ft 483 kts 279°
2026-04-21 13:08 16.95633 86.22261 37817 ft 483 kts 279°
2026-04-21 13:08 16.97221 86.15456 37821 ft 482 kts 279°
2026-04-21 13:09 16.98806 86.08648 37821 ft 482 kts 279°
2026-04-21 13:09 17.00378 86.01887 37819 ft 482 kts 279°
2026-04-21 13:10 17.01958 85.95082 37820 ft 482 kts 279°
2026-04-21 13:10 17.03536 85.88273 37818 ft 482 kts 279°
2026-04-21 13:11 17.05112 85.81465 37819 ft 482 kts 279°
2026-04-21 13:11 17.06684 85.74658 37815 ft 482 kts 279°
2026-04-21 13:12 17.08255 85.67846 37812 ft 482 kts 279°
2026-04-21 13:12 17.09823 85.61039 37814 ft 482 kts 279°
2026-04-21 13:13 17.11389 85.54225 37817 ft 482 kts 279°
2026-04-21 13:13 17.12952 85.47418 37815 ft 482 kts 279°
2026-04-21 13:14 17.14512 85.40607 37818 ft 482 kts 279°
2026-04-21 13:14 17.16071 85.33795 37814 ft 482 kts 279°
2026-04-21 13:15 17.17640 85.26994 37811 ft 482 kts 279°
2026-04-21 13:15 17.19261 85.20191 37813 ft 482 kts 279°
2026-04-21 13:16 17.20886 85.13392 37809 ft 482 kts 279°
2026-04-21 13:16 17.22499 85.06595 37811 ft 481 kts 279°
2026-04-21 13:17 17.24106 84.99800 37812 ft 481 kts 279°
2026-04-21 13:17 17.25710 84.93002 37812 ft 481 kts 279°
2026-04-21 13:18 17.27312 84.86205 37811 ft 481 kts 279°
2026-04-21 13:18 17.28911 84.79409 37812 ft 481 kts 279°
2026-04-21 13:19 17.30507 84.72615 37812 ft 481 kts 279°
2026-04-21 13:19 17.32090 84.65864 37809 ft 481 kts 279°
2026-04-21 13:20 17.33680 84.59072 37811 ft 481 kts 279°
2026-04-21 13:20 17.35270 84.52273 37811 ft 481 kts 279°
2026-04-21 13:21 17.36889 84.45481 37809 ft 481 kts 279°
2026-04-21 13:21 17.38573 84.38696 37807 ft 481 kts 279°
2026-04-21 13:22 17.40257 84.31911 37807 ft 482 kts 279°
2026-04-21 13:22 17.41927 84.25124 37806 ft 482 kts 279°
2026-04-21 13:23 17.43594 84.18326 37807 ft 482 kts 279°
2026-04-21 13:23 17.45259 84.11524 37804 ft 482 kts 279°
2026-04-21 13:24 17.46922 84.04721 37806 ft 483 kts 279°
2026-04-21 13:24 17.48585 83.97908 37803 ft 483 kts 279°
2026-04-21 13:25 17.50247 83.91097 37801 ft 483 kts 279°
2026-04-21 13:25 17.51674 83.85443 37800 ft 483 kts 279°
2026-04-21 13:26 17.53711 83.77498 37799 ft 483 kts 279°
2026-04-21 13:26 17.55152 83.71853 37799 ft 482 kts 279°
2026-04-21 13:27 17.56873 83.65067 37802 ft 482 kts 279°
2026-04-21 13:27 17.58878 83.57143 37800 ft 481 kts 279°
2026-04-21 13:28 17.60301 83.51513 37806 ft 480 kts 279°
2026-04-21 13:28 17.62007 83.44751 37815 ft 480 kts 279°
2026-04-21 13:29 17.63985 83.36901 37825 ft 479 kts 279°
2026-04-21 13:29 17.65681 83.30157 37830 ft 478 kts 279°
2026-04-21 13:30 17.67133 83.24516 37832 ft 480 kts 281°
2026-04-21 13:30 17.69244 83.17867 37840 ft 481 kts 283°
2026-04-21 13:31 17.71421 83.11239 37834 ft 481 kts 283°
2026-04-21 13:31 17.73583 83.04601 37819 ft 481 kts 283°
2026-04-21 13:32 17.75711 82.98008 37822 ft 480 kts 283°
2026-04-21 13:32 17.77843 82.91370 37822 ft 480 kts 282°
2026-04-21 13:33 17.79972 82.84737 37828 ft 480 kts 282°
2026-04-21 13:33 17.82098 82.78105 37840 ft 480 kts 282°
2026-04-21 13:34 17.84224 82.71466 37855 ft 479 kts 282°
2026-04-21 13:34 17.86346 82.64833 37855 ft 480 kts 282°
2026-04-21 13:35 17.88468 82.58189 37860 ft 481 kts 282°
2026-04-21 13:35 17.90591 82.51534 37865 ft 481 kts 282°
2026-04-21 13:36 17.92714 82.44872 37881 ft 481 kts 283°
2026-04-21 13:36 17.94839 82.38194 37876 ft 482 kts 283°
2026-04-21 13:37 17.96960 82.31521 37883 ft 482 kts 282°
2026-04-21 13:37 17.99078 82.24845 37883 ft 482 kts 282°
2026-04-21 13:38 18.01195 82.18169 37872 ft 482 kts 282°
2026-04-21 13:38 18.03310 82.11484 37871 ft 482 kts 282°
2026-04-21 13:39 18.05423 82.04798 37856 ft 482 kts 282°
2026-04-21 13:39 18.07536 81.98123 37857 ft 482 kts 282°
2026-04-21 13:40 18.09713 81.91461 37844 ft 482 kts 283°
2026-04-21 13:40 18.11912 81.84805 37842 ft 481 kts 283°
2026-04-21 13:41 18.14099 81.78152 37829 ft 481 kts 283°
2026-04-21 13:41 18.16260 81.71547 37809 ft 481 kts 283°
2026-04-21 13:42 18.18427 81.64903 37820 ft 480 kts 282°
2026-04-21 13:42 18.20590 81.58268 37820 ft 479 kts 282°
2026-04-21 13:43 18.22749 81.51638 37804 ft 479 kts 282°
2026-04-21 13:43 18.24901 81.45019 37811 ft 478 kts 282°
2026-04-21 13:44 18.27049 81.38406 37801 ft 478 kts 282°
2026-04-21 13:44 18.29193 81.31792 37810 ft 478 kts 282°
2026-04-21 13:45 18.31335 81.25178 37809 ft 478 kts 282°
2026-04-21 13:45 18.33475 81.18562 37817 ft 478 kts 282°
2026-04-21 13:46 18.35616 81.11933 37810 ft 478 kts 282°
2026-04-21 13:46 18.37754 81.05305 37815 ft 479 kts 282°
2026-04-21 13:47 18.39894 80.98665 37809 ft 479 kts 282°
2026-04-21 13:47 18.42034 80.92014 37806 ft 480 kts 282°
2026-04-21 13:48 18.44172 80.85358 37811 ft 480 kts 282°
2026-04-21 13:48 18.46310 80.78698 37807 ft 480 kts 282°
2026-04-21 13:49 18.48445 80.72034 37794 ft 480 kts 282°
2026-04-21 13:49 18.50575 80.65379 37798 ft 478 kts 282°
2026-04-21 13:50 18.52694 80.58748 37804 ft 478 kts 281°
2026-04-21 13:50 18.54754 80.52079 37803 ft 479 kts 280°
2026-04-21 13:51 18.56746 80.45386 37801 ft 479 kts 280°
2026-04-21 13:51 18.58738 80.38683 37797 ft 480 kts 280°
2026-04-21 13:52 18.60744 80.31967 37792 ft 480 kts 280°
2026-04-21 13:52 18.62753 80.25253 37792 ft 480 kts 280°
2026-04-21 13:53 18.64758 80.18543 37787 ft 479 kts 280°
2026-04-21 13:53 18.66745 80.11886 37784 ft 479 kts 280°
2026-04-21 13:54 18.68737 80.05198 37791 ft 478 kts 280°
2026-04-21 13:54 18.70722 79.98524 37785 ft 477 kts 280°
2026-04-21 13:55 18.72702 79.91855 37786 ft 475 kts 280°
2026-04-21 13:55 18.74672 79.85212 37783 ft 474 kts 279°
2026-04-21 13:56 18.76638 79.78577 37790 ft 473 kts 279°
2026-04-21 13:56 18.78596 79.71952 37787 ft 473 kts 279°
2026-04-21 13:57 18.80552 79.65330 37792 ft 472 kts 279°
2026-04-21 13:57 18.82499 79.58724 37792 ft 472 kts 279°
2026-04-21 13:58 18.84446 79.52112 37792 ft 471 kts 279°
2026-04-21 13:58 18.86388 79.45505 37793 ft 471 kts 279°
2026-04-21 13:59 18.88330 79.38892 37794 ft 471 kts 279°
2026-04-21 13:59 18.90267 79.32284 37800 ft 471 kts 279°
2026-04-21 14:00 18.92202 79.25675 37796 ft 471 kts 279°
2026-04-21 14:00 18.94135 79.19063 37791 ft 471 kts 279°
2026-04-21 14:01 18.96064 79.12456 37803 ft 470 kts 279°
2026-04-21 14:01 18.97989 79.05853 37807 ft 470 kts 279°
2026-04-21 14:02 18.99910 78.99253 37801 ft 470 kts 279°
2026-04-21 14:03 19.02782 78.89366 37802 ft 469 kts 279°
2026-04-21 14:03 19.04693 78.82780 37804 ft 469 kts 279°
2026-04-21 14:04 19.06600 78.76194 37799 ft 468 kts 279°
2026-04-21 14:04 19.08504 78.69610 37795 ft 468 kts 278°
2026-04-21 14:05 19.10390 78.63079 37813 ft 467 kts 278°
2026-04-21 14:05 19.12283 78.56514 37817 ft 467 kts 278°
2026-04-21 14:06 19.14174 78.49942 37813 ft 467 kts 278°
2026-04-21 14:06 19.16064 78.43368 37819 ft 467 kts 278°
2026-04-21 14:07 19.17952 78.36792 37820 ft 467 kts 278°
2026-04-21 14:07 19.19837 78.30217 37805 ft 467 kts 278°
2026-04-21 14:08 19.21721 78.23632 37821 ft 467 kts 278°
2026-04-21 14:08 19.23602 78.17051 37810 ft 467 kts 278°
2026-04-21 14:09 19.25405 78.10458 37818 ft 464 kts 276°
2026-04-21 14:09 19.26904 78.03832 37817 ft 463 kts 275°
2026-04-21 14:10 19.28385 77.97200 37826 ft 463 kts 276°
2026-04-21 14:10 19.29893 77.90579 37823 ft 463 kts 276°
2026-04-21 14:11 19.31421 77.83954 37829 ft 463 kts 276°
2026-04-21 14:11 19.32950 77.77333 37831 ft 463 kts 276°
2026-04-21 14:12 19.34474 77.70706 37830 ft 463 kts 276°
2026-04-21 14:12 19.35994 77.64083 37833 ft 463 kts 276°
2026-04-21 14:13 19.37512 77.57455 37833 ft 463 kts 276°
2026-04-21 14:13 19.39028 77.50820 37836 ft 464 kts 276°
2026-04-21 14:14 19.40544 77.44176 37835 ft 464 kts 276°
2026-04-21 14:14 19.42058 77.37529 37833 ft 464 kts 276°
2026-04-21 14:15 19.43561 77.30919 37834 ft 465 kts 276°
2026-04-21 14:15 19.45072 77.24263 37836 ft 465 kts 276°
2026-04-21 14:16 19.46576 77.17607 37841 ft 465 kts 275°
2026-04-21 14:16 19.48076 77.10946 37841 ft 465 kts 275°
2026-04-21 14:17 19.49574 77.04292 37844 ft 464 kts 275°
2026-04-21 14:17 19.50826 76.98714 37841 ft 464 kts 275°
2026-04-21 14:18 19.52309 76.92103 37843 ft 464 kts 275°
2026-04-21 14:18 19.54046 76.84341 37843 ft 463 kts 275°
2026-04-21 14:19 19.55287 76.78827 37850 ft 462 kts 275°
2026-04-21 14:19 19.56794 76.72200 37842 ft 462 kts 275°
2026-04-21 14:20 19.58298 76.65581 37851 ft 461 kts 275°
2026-04-21 14:20 19.59795 76.58969 37849 ft 461 kts 275°
2026-04-21 14:21 19.61285 76.52364 37845 ft 461 kts 275°
2026-04-21 14:21 19.62774 76.45753 37853 ft 461 kts 275°
2026-04-21 14:22 19.64260 76.39142 37845 ft 461 kts 275°
2026-04-21 14:22 19.65745 76.32528 37846 ft 461 kts 275°
2026-04-21 14:23 19.67227 76.25912 37849 ft 461 kts 275°
2026-04-21 14:23 19.68710 76.19284 37849 ft 462 kts 275°
2026-04-21 14:24 19.70190 76.12654 37851 ft 462 kts 275°
2026-04-21 14:24 19.71660 76.06055 37851 ft 462 kts 275°
2026-04-21 14:25 19.73138 75.99411 37853 ft 463 kts 275°
2026-04-21 14:25 19.74613 75.92770 37855 ft 463 kts 275°
2026-04-21 14:26 19.76087 75.86118 37857 ft 463 kts 275°
2026-04-21 14:26 19.77557 75.79471 37856 ft 463 kts 275°
2026-04-21 14:27 19.79028 75.72812 37858 ft 463 kts 275°
2026-04-21 14:27 19.80494 75.66159 37862 ft 463 kts 275°
2026-04-21 14:28 19.81957 75.59510 37863 ft 463 kts 275°
2026-04-21 14:28 19.83419 75.52848 37857 ft 463 kts 275°
2026-04-21 14:29 19.84879 75.46184 37857 ft 463 kts 275°
2026-04-21 14:29 19.86331 75.39519 37854 ft 463 kts 275°
2026-04-21 14:30 19.87613 75.32837 37863 ft 461 kts 273°
2026-04-21 14:30 19.88821 75.26142 37862 ft 461 kts 273°
2026-04-21 14:31 19.90039 75.19448 37861 ft 462 kts 274°
2026-04-21 14:31 19.91274 75.12745 37862 ft 463 kts 274°
2026-04-21 14:32 19.92515 75.06033 37863 ft 463 kts 274°
2026-04-21 14:32 19.93753 74.99322 37864 ft 463 kts 274°
2026-04-21 14:33 19.94991 74.92596 37861 ft 464 kts 274°
2026-04-21 14:33 19.96225 74.85872 37861 ft 464 kts 274°
2026-04-21 14:34 19.97460 74.79127 37862 ft 465 kts 274°
2026-04-21 14:34 19.98694 74.72378 37867 ft 466 kts 274°
2026-04-21 14:35 19.99928 74.65608 37867 ft 467 kts 274°
2026-04-21 14:35 20.01162 74.58822 37872 ft 468 kts 274°
2026-04-21 14:36 20.02396 74.52028 37868 ft 469 kts 274°
2026-04-21 14:36 20.03629 74.45218 37873 ft 469 kts 274°
2026-04-21 14:37 20.04854 74.38438 37871 ft 470 kts 274°
2026-04-21 14:37 20.06086 74.31608 37880 ft 471 kts 274°
2026-04-21 14:38 20.07316 74.24768 37883 ft 471 kts 275°
2026-04-21 14:38 20.08546 74.17915 37898 ft 472 kts 275°
2026-04-21 14:39 20.09774 74.11052 37903 ft 473 kts 275°
2026-04-21 14:39 20.11003 74.04175 37908 ft 473 kts 275°
2026-04-21 14:40 20.12229 73.97297 37913 ft 473 kts 275°
2026-04-21 14:40 20.13452 73.90415 37911 ft 474 kts 275°
2026-04-21 14:41 20.14675 73.83519 37914 ft 474 kts 275°
2026-04-21 14:41 20.15896 73.76621 37911 ft 475 kts 275°
2026-04-21 14:42 20.17117 73.69706 37906 ft 475 kts 275°
2026-04-21 14:42 20.18335 73.62788 37901 ft 476 kts 275°
2026-04-21 14:43 20.19553 73.55855 37895 ft 477 kts 276°
2026-04-21 14:43 20.20771 73.48910 37892 ft 478 kts 276°
2026-04-21 14:44 20.21988 73.41950 37878 ft 478 kts 276°
2026-04-21 14:44 20.23204 73.34980 37877 ft 479 kts 276°
2026-04-21 14:45 20.24410 73.28052 37882 ft 479 kts 276°
2026-04-21 14:45 20.25667 73.21023 37862 ft 481 kts 277°
2026-04-21 14:46 20.26980 73.14090 37865 ft 481 kts 277°
2026-04-21 14:46 20.28307 73.07093 37862 ft 482 kts 277°
2026-04-21 14:47 20.29622 73.00080 37854 ft 483 kts 277°
2026-04-21 14:47 20.30933 72.93052 37851 ft 484 kts 278°
2026-04-21 14:48 20.32242 72.86003 37850 ft 486 kts 278°
2026-04-21 14:48 20.33553 72.78933 37843 ft 487 kts 278°
2026-04-21 14:49 20.34865 72.71849 37842 ft 488 kts 278°
2026-04-21 14:49 20.36177 72.64742 37844 ft 489 kts 278°
2026-04-21 14:50 20.37268 72.58820 37837 ft 490 kts 278°
2026-04-21 14:50 20.38802 72.50476 37835 ft 492 kts 278°
2026-04-21 14:51 20.40117 72.43304 37831 ft 493 kts 278°
2026-04-21 14:51 20.41431 72.36119 37834 ft 495 kts 279°
2026-04-21 14:52 20.42747 72.28910 37833 ft 496 kts 279°
2026-04-21 14:52 20.44061 72.21687 37833 ft 497 kts 279°
2026-04-21 14:53 20.45378 72.14435 37835 ft 498 kts 279°
2026-04-21 14:53 20.46694 72.07169 37840 ft 500 kts 279°
2026-04-21 14:54 20.48009 71.99894 37847 ft 501 kts 279°
2026-04-21 14:54 20.49321 71.92595 37844 ft 501 kts 279°
2026-04-21 14:55 20.50629 71.85295 37842 ft 501 kts 279°
2026-04-21 14:55 20.51936 71.77985 37845 ft 501 kts 280°
2026-04-21 14:56 20.53239 71.70675 37842 ft 501 kts 280°
2026-04-21 14:56 20.54539 71.63369 37845 ft 502 kts 280°
2026-04-21 14:57 20.55829 71.56102 37850 ft 501 kts 281°
2026-04-21 14:57 20.57131 71.48744 37849 ft 501 kts 281°
2026-04-21 14:58 20.58423 71.41430 37849 ft 501 kts 281°
2026-04-21 14:58 20.59709 71.34123 37854 ft 501 kts 281°
2026-04-21 14:59 20.60776 71.28052 37848 ft 501 kts 281°
2026-04-21 14:59 20.62272 71.19516 37855 ft 500 kts 281°
2026-04-21 15:00 20.63539 71.12267 37857 ft 500 kts 281°
2026-04-21 15:00 20.64810 71.04972 37855 ft 499 kts 281°
2026-04-21 15:01 20.66077 70.97685 37857 ft 499 kts 281°
2026-04-21 15:01 20.67136 70.91582 37862 ft 499 kts 281°
2026-04-21 15:02 20.68600 70.83120 37869 ft 499 kts 281°
2026-04-21 15:02 20.69856 70.75839 37869 ft 498 kts 281°
2026-04-21 15:03 20.71109 70.68557 37870 ft 498 kts 281°
2026-04-21 15:03 20.72357 70.61280 37872 ft 498 kts 281°
2026-04-21 15:04 20.73394 70.55226 37869 ft 498 kts 281°
2026-04-21 15:04 20.74637 70.47947 37872 ft 498 kts 281°
2026-04-21 15:05 20.75879 70.40657 37871 ft 498 kts 281°
2026-04-21 15:05 20.77942 70.28506 37874 ft 498 kts 281°
2026-04-21 15:06 20.78967 70.22447 37876 ft 498 kts 281°
2026-04-21 15:06 20.80197 70.15158 37870 ft 498 kts 281°
2026-04-21 15:07 20.81423 70.07874 37877 ft 498 kts 281°
2026-04-21 15:07 20.82646 70.00588 37875 ft 498 kts 281°
2026-04-21 15:08 20.83866 69.93300 37878 ft 498 kts 281°
2026-04-21 15:08 20.85082 69.86019 37879 ft 498 kts 281°
2026-04-21 15:09 20.86295 69.78732 37880 ft 498 kts 281°
2026-04-21 15:09 20.87505 69.71450 37881 ft 497 kts 281°
2026-04-21 15:10 20.88710 69.64171 37885 ft 497 kts 281°
2026-04-21 15:10 20.89912 69.56892 37884 ft 497 kts 281°
2026-04-21 15:11 20.91111 69.49615 37884 ft 497 kts 281°
2026-04-21 15:11 20.92307 69.42337 37883 ft 497 kts 281°
2026-04-21 15:12 20.93498 69.35064 37884 ft 496 kts 281°
2026-04-21 15:12 20.94678 69.27841 37888 ft 496 kts 281°
2026-04-21 15:13 20.95862 69.20573 37887 ft 496 kts 281°
2026-04-21 15:13 20.97109 69.13325 37889 ft 495 kts 285°
2026-04-21 15:14 20.99271 69.06363 37886 ft 493 kts 295°
2026-04-21 15:14 21.02098 68.99687 37893 ft 492 kts 295°
2026-04-21 15:15 21.04942 68.93025 37887 ft 492 kts 295°
2026-04-21 15:15 21.07754 68.86348 37886 ft 492 kts 295°
2026-04-21 15:16 21.10546 68.79656 37890 ft 492 kts 295°
2026-04-21 15:16 21.13325 68.72971 37890 ft 492 kts 295°
2026-04-21 15:17 21.16105 68.66280 37889 ft 491 kts 295°
2026-04-21 15:17 21.18880 68.59593 37889 ft 491 kts 295°
2026-04-21 15:18 21.21657 68.52897 37888 ft 491 kts 295°
2026-04-21 15:18 21.24425 68.46213 37889 ft 491 kts 294°
2026-04-21 15:19 21.27194 68.39516 37889 ft 491 kts 294°
2026-04-21 15:19 21.29939 68.32868 37891 ft 491 kts 294°
2026-04-21 15:20 21.32700 68.26173 37892 ft 491 kts 294°
2026-04-21 15:20 21.35462 68.19468 37888 ft 491 kts 294°
2026-04-21 15:21 21.38219 68.12764 37892 ft 491 kts 294°
2026-04-21 15:21 21.40973 68.06060 37893 ft 491 kts 294°
2026-04-21 15:22 21.43724 67.99354 37886 ft 491 kts 294°
2026-04-21 15:22 21.46477 67.92635 37886 ft 491 kts 294°
2026-04-21 15:23 21.49225 67.85918 37888 ft 491 kts 294°
2026-04-21 15:23 21.51971 67.79197 37888 ft 492 kts 294°
2026-04-21 15:24 21.54716 67.72469 37891 ft 492 kts 294°
2026-04-21 15:24 21.57457 67.65741 37889 ft 492 kts 294°
2026-04-21 15:25 21.60196 67.59008 37888 ft 492 kts 294°
2026-04-21 15:25 21.62933 67.52274 37888 ft 492 kts 294°
2026-04-21 15:26 21.65666 67.45538 37889 ft 491 kts 294°
2026-04-21 15:26 21.68396 67.38801 37887 ft 491 kts 294°
2026-04-21 15:27 21.71122 67.32065 37888 ft 491 kts 294°
2026-04-21 15:27 21.73841 67.25336 37883 ft 490 kts 294°
2026-04-21 15:28 21.76556 67.18608 37887 ft 490 kts 294°
2026-04-21 15:28 21.79246 67.11933 37886 ft 489 kts 294°
2026-04-21 15:29 21.81947 67.05222 37887 ft 489 kts 293°
2026-04-21 15:29 21.84643 66.98512 37884 ft 488 kts 293°
2026-04-21 15:30 21.87331 66.91815 37883 ft 487 kts 293°
2026-04-21 15:30 21.90011 66.85128 37886 ft 486 kts 293°
2026-04-21 15:31 21.92686 66.78444 37883 ft 486 kts 293°
2026-04-21 15:31 21.95356 66.71763 37883 ft 485 kts 293°
2026-04-21 15:32 21.98016 66.65097 37881 ft 484 kts 293°
2026-04-21 15:32 22.00674 66.58427 37881 ft 484 kts 293°
2026-04-21 15:33 22.03328 66.51759 37880 ft 484 kts 293°
2026-04-21 15:33 22.05977 66.45093 37880 ft 484 kts 292°
2026-04-21 15:34 22.08625 66.38424 37882 ft 484 kts 292°
2026-04-21 15:34 22.11271 66.31749 37885 ft 484 kts 292°
2026-04-21 15:35 22.13915 66.25066 37882 ft 484 kts 292°
2026-04-21 15:35 22.16556 66.18383 37879 ft 484 kts 292°
2026-04-21 15:36 22.19193 66.11699 37879 ft 484 kts 292°
2026-04-21 15:36 22.21831 66.05006 37880 ft 484 kts 292°
2026-04-21 15:37 22.24444 65.98364 37879 ft 484 kts 292°
2026-04-21 15:37 22.27073 65.91673 37879 ft 484 kts 292°
2026-04-21 15:38 22.29700 65.84980 37880 ft 484 kts 292°
2026-04-21 15:38 22.32342 65.78237 37880 ft 484 kts 292°
2026-04-21 15:39 22.34946 65.71581 37878 ft 484 kts 292°
2026-04-21 15:39 22.37563 65.64882 37880 ft 484 kts 292°
2026-04-21 15:40 22.40179 65.58177 37878 ft 484 kts 292°
2026-04-21 15:40 22.42792 65.51471 37877 ft 484 kts 292°
2026-04-21 15:41 22.45402 65.44761 37877 ft 484 kts 292°
2026-04-21 15:41 22.48011 65.38044 37878 ft 484 kts 292°
2026-04-21 15:42 22.50616 65.31330 37877 ft 484 kts 292°
2026-04-21 15:42 22.53220 65.24607 37876 ft 485 kts 292°
2026-04-21 15:43 22.55820 65.17883 37876 ft 485 kts 292°
2026-04-21 15:43 22.58422 65.11148 37878 ft 485 kts 292°
2026-04-21 15:44 22.61016 65.04420 37877 ft 485 kts 292°
2026-04-21 15:44 22.63612 64.97679 37876 ft 485 kts 292°
2026-04-21 15:45 22.66205 64.90937 37874 ft 485 kts 292°
2026-04-21 15:45 22.68796 64.84189 37871 ft 485 kts 292°
2026-04-21 15:46 22.71385 64.77437 37873 ft 486 kts 292°
2026-04-21 15:46 22.73972 64.70679 37870 ft 486 kts 292°
2026-04-21 15:47 22.76558 64.63912 37871 ft 486 kts 292°
2026-04-21 15:47 22.79143 64.57142 37872 ft 486 kts 292°
2026-04-21 15:48 22.81723 64.50371 37870 ft 486 kts 292°
2026-04-21 15:48 22.84304 64.43591 37869 ft 487 kts 292°
2026-04-21 15:49 22.86883 64.36803 37869 ft 487 kts 292°
2026-04-21 15:49 22.89459 64.30014 37868 ft 487 kts 292°
2026-04-21 15:50 22.92016 64.23263 37867 ft 487 kts 292°
2026-04-21 15:50 22.94589 64.16461 37869 ft 487 kts 292°
2026-04-21 15:51 22.97161 64.09653 37868 ft 488 kts 292°
2026-04-21 15:51 22.99732 64.02836 37868 ft 488 kts 292°
2026-04-21 15:52 23.02302 63.96009 37871 ft 489 kts 292°
2026-04-21 15:52 23.04798 63.89154 37866 ft 489 kts 288°
2026-04-21 15:53 23.06378 63.81983 37870 ft 489 kts 277°
2026-04-21 15:53 23.07140 63.74649 37872 ft 489 kts 276°
2026-04-21 15:54 23.07730 63.68531 37867 ft 490 kts 276°
2026-04-21 15:54 23.08588 63.59926 37868 ft 491 kts 276°
2026-04-21 15:55 23.09217 63.53799 37868 ft 491 kts 276°
2026-04-21 15:55 23.09983 63.46374 37865 ft 492 kts 276°
2026-04-21 15:56 23.10741 63.38991 37865 ft 492 kts 276°
2026-04-21 15:56 23.11490 63.31643 37866 ft 493 kts 276°
2026-04-21 15:57 23.12239 63.24252 37867 ft 493 kts 276°
2026-04-21 15:57 23.12986 63.16847 37862 ft 493 kts 276°
2026-04-21 15:58 23.13729 63.09449 37862 ft 493 kts 276°
2026-04-21 15:58 23.14470 63.02040 37860 ft 493 kts 276°
2026-04-21 15:59 23.15207 62.94634 37860 ft 493 kts 276°
2026-04-21 15:59 23.15940 62.87226 37855 ft 493 kts 276°
2026-04-21 16:00 23.16670 62.79817 37859 ft 493 kts 276°
2026-04-21 16:00 23.17397 62.72402 37851 ft 494 kts 276°
2026-04-21 16:01 23.18120 62.64982 37860 ft 494 kts 276°
2026-04-21 16:01 23.18841 62.57558 37866 ft 494 kts 276°
2026-04-21 16:02 23.19560 62.50127 37859 ft 495 kts 276°
2026-04-21 16:02 23.20274 62.42692 37860 ft 495 kts 276°
2026-04-21 16:03 23.20986 62.35246 37856 ft 496 kts 276°
2026-04-21 16:03 23.21696 62.27783 37858 ft 496 kts 276°
2026-04-21 16:04 23.22402 62.20322 37858 ft 497 kts 277°
2026-04-21 16:04 23.23106 62.12851 37856 ft 497 kts 277°
2026-04-21 16:05 23.23806 62.05378 37858 ft 497 kts 277°
2026-04-21 16:05 23.24503 61.97905 37854 ft 497 kts 277°
2026-04-21 16:06 23.25196 61.90431 37850 ft 496 kts 277°
2026-04-21 16:06 23.25879 61.83025 37853 ft 496 kts 277°
2026-04-21 16:07 23.26564 61.75563 37847 ft 495 kts 277°
2026-04-21 16:07 23.27244 61.68120 37848 ft 495 kts 277°
2026-04-21 16:08 23.28255 61.56967 37846 ft 493 kts 277°
2026-04-21 16:09 23.28924 61.49543 37847 ft 493 kts 277°
2026-04-21 16:09 23.29589 61.42124 37846 ft 492 kts 277°
2026-04-21 16:10 23.30249 61.34716 37844 ft 492 kts 277°
2026-04-21 16:10 23.30907 61.27298 37844 ft 492 kts 277°
2026-04-21 16:11 23.31561 61.19885 37844 ft 492 kts 277°
2026-04-21 16:11 23.32337 61.12494 37845 ft 491 kts 280°
2026-04-21 16:12 23.33316 61.05150 37841 ft 491 kts 281°
2026-04-21 16:12 23.34280 60.97800 37840 ft 490 kts 280°
2026-04-21 16:13 23.35204 60.90449 37836 ft 490 kts 280°
2026-04-21 16:13 23.36114 60.83102 37834 ft 489 kts 280°
2026-04-21 16:14 23.37023 60.75767 37837 ft 489 kts 280°
2026-04-21 16:14 23.37936 60.68443 37833 ft 488 kts 281°
2026-04-21 16:15 23.39544 60.61316 37839 ft 483 kts 291°
2026-04-21 16:15 23.42012 60.54525 37837 ft 482 kts 294°
2026-04-21 16:16 23.44534 60.47779 37830 ft 481 kts 294°
2026-04-21 16:16 23.47016 60.41055 37831 ft 481 kts 294°
2026-04-21 16:17 23.49489 60.34283 37830 ft 481 kts 293°
2026-04-21 16:17 23.51969 60.27463 37831 ft 481 kts 293°
2026-04-21 16:18 23.54414 60.20731 37829 ft 481 kts 293°
2026-04-21 16:18 23.56873 60.13954 37831 ft 481 kts 293°
2026-04-21 16:19 23.59328 60.07178 37832 ft 480 kts 293°
2026-04-21 16:19 23.61780 60.00399 37833 ft 480 kts 293°
2026-04-21 16:20 23.64225 59.93629 37831 ft 480 kts 293°
2026-04-21 16:20 23.66665 59.86864 37830 ft 479 kts 293°
2026-04-21 16:21 23.69073 59.80085 37828 ft 479 kts 292°
2026-04-21 16:21 23.71406 59.73288 37830 ft 478 kts 292°
2026-04-21 16:22 23.73725 59.66499 37829 ft 477 kts 292°
2026-04-21 16:22 23.76047 59.59719 37831 ft 476 kts 292°
2026-04-21 16:23 23.78365 59.52958 37828 ft 475 kts 292°
2026-04-21 16:23 23.80675 59.46218 37831 ft 474 kts 292°
2026-04-21 16:24 23.82978 59.39482 37828 ft 473 kts 292°
2026-04-21 16:24 23.85274 59.32757 37828 ft 472 kts 292°
2026-04-21 16:25 23.87560 59.26049 37829 ft 471 kts 292°
2026-04-21 16:25 23.89836 59.19359 37829 ft 469 kts 292°
2026-04-21 16:26 23.92106 59.12678 37825 ft 468 kts 292°
2026-04-21 16:26 23.94369 59.06006 37828 ft 467 kts 292°
2026-04-21 16:27 23.96620 58.99359 37834 ft 465 kts 291°
2026-04-21 16:27 23.98838 58.92795 37831 ft 462 kts 291°
2026-04-21 16:28 24.01071 58.86177 37825 ft 459 kts 291°
2026-04-21 16:28 24.03262 58.79675 37827 ft 458 kts 291°
2026-04-21 16:29 24.05097 58.74222 37832 ft 456 kts 291°
2026-04-21 16:29 24.07643 58.66645 37835 ft 455 kts 291°
2026-04-21 16:30 24.09819 58.60158 37835 ft 455 kts 291°
2026-04-21 16:30 24.11999 58.53644 37824 ft 455 kts 291°
2026-04-21 16:31 24.14145 58.47224 37813 ft 439 kts 291°
2026-04-21 16:31 24.16210 58.41033 37821 ft 430 kts 291°
2026-04-21 16:32 24.18260 58.34884 37825 ft 430 kts 291°
2026-04-21 16:32 24.20310 58.28726 37827 ft 430 kts 291°
2026-04-21 16:33 24.22354 58.22574 37828 ft 430 kts 290°
2026-04-21 16:33 24.24397 58.16417 37837 ft 430 kts 290°
2026-04-21 16:34 24.26439 58.10252 37835 ft 430 kts 290°
2026-04-21 16:34 24.28477 58.04089 37834 ft 430 kts 290°
2026-04-21 16:35 24.30516 57.97914 37839 ft 430 kts 290°
2026-04-21 16:35 24.32550 57.91744 37831 ft 430 kts 290°
2026-04-21 16:36 24.34582 57.85571 37835 ft 430 kts 290°
2026-04-21 16:36 24.36612 57.79395 37835 ft 430 kts 290°
2026-04-21 16:37 24.38639 57.73217 37837 ft 430 kts 290°
2026-04-21 16:37 24.40664 57.67037 37841 ft 431 kts 290°
2026-04-21 16:38 24.42675 57.60891 37843 ft 431 kts 290°
2026-04-21 16:38 24.44693 57.54711 37841 ft 428 kts 290°
2026-04-21 16:39 24.46676 57.48631 37194 ft 421 kts 290°
2026-04-21 16:39 24.47659 57.45614 36594 ft 420 kts 289°
2026-04-21 16:39 24.48643 57.42593 35896 ft 421 kts 289°
2026-04-21 16:39 24.49631 57.39555 35274 ft 423 kts 289°
2026-04-21 16:40 24.50286 57.37540 34904 ft 425 kts 288°
2026-04-21 16:40 24.51287 57.34456 34327 ft 434 kts 288°
2026-04-21 16:40 24.52315 57.31282 33744 ft 448 kts 288°
2026-04-21 16:40 24.53367 57.28035 33109 ft 452 kts 288°
2026-04-21 16:41 24.54419 57.24788 32490 ft 450 kts 287°
2026-04-21 16:41 24.55465 57.21562 31900 ft 447 kts 287°
2026-04-21 16:41 24.56503 57.18359 31335 ft 445 kts 287°
2026-04-21 16:41 24.57537 57.15163 30769 ft 442 kts 287°
2026-04-21 16:42 24.58563 57.11987 30206 ft 440 kts 287°
2026-04-21 16:42 24.59583 57.08827 29583 ft 438 kts 287°
2026-04-21 16:42 24.60597 57.05681 28959 ft 435 kts 287°
2026-04-21 16:42 24.61604 57.02557 28370 ft 431 kts 287°
2026-04-21 16:43 24.62600 56.99463 27796 ft 428 kts 287°
2026-04-21 16:43 24.63588 56.96394 27240 ft 424 kts 287°
2026-04-21 16:43 24.64566 56.93351 26692 ft 420 kts 287°
2026-04-21 16:43 24.65533 56.90340 26147 ft 417 kts 287°
2026-04-21 16:44 24.66495 56.87344 25615 ft 414 kts 287°
2026-04-21 16:44 24.67446 56.84376 25082 ft 411 kts 287°
2026-04-21 16:44 24.68392 56.81424 24548 ft 408 kts 287°
2026-04-21 16:44 24.69332 56.78488 24011 ft 406 kts 288°
2026-04-21 16:45 24.70265 56.75569 23483 ft 403 kts 288°
2026-04-21 16:45 24.71192 56.72670 22879 ft 401 kts 288°
2026-04-21 16:45 24.72111 56.69795 22323 ft 397 kts 288°
2026-04-21 16:45 24.73024 56.66935 21814 ft 393 kts 288°
2026-04-21 16:46 24.73925 56.64111 21310 ft 389 kts 288°
2026-04-21 16:46 24.74816 56.61316 20817 ft 386 kts 288°
2026-04-21 16:46 24.75699 56.58543 20326 ft 382 kts 288°
2026-04-21 16:46 24.76572 56.55798 19843 ft 379 kts 288°
2026-04-21 16:47 24.77440 56.53071 19362 ft 376 kts 289°
2026-04-21 16:47 24.78300 56.50365 18876 ft 374 kts 289°
2026-04-21 16:47 24.79153 56.47677 18384 ft 372 kts 289°
2026-04-21 16:47 24.80004 56.44996 17861 ft 370 kts 289°
2026-04-21 16:48 24.80849 56.42334 17343 ft 367 kts 289°
2026-04-21 16:48 24.81686 56.39695 16849 ft 364 kts 289°
2026-04-21 16:48 24.82516 56.37075 16377 ft 361 kts 288°
2026-04-21 16:48 24.83338 56.34477 15892 ft 358 kts 288°
2026-04-21 16:49 24.84156 56.31893 15434 ft 356 kts 288°
2026-04-21 16:49 24.84966 56.29330 14974 ft 354 kts 288°
2026-04-21 16:49 24.85771 56.26779 14519 ft 352 kts 288°
2026-04-21 16:49 24.86573 56.24238 14057 ft 351 kts 288°
2026-04-21 16:50 24.87373 56.21702 13570 ft 350 kts 287°
2026-04-21 16:50 24.88169 56.19178 13080 ft 348 kts 287°
2026-04-21 16:50 24.88961 56.16663 12616 ft 346 kts 287°
2026-04-21 16:50 24.89746 56.14167 12155 ft 344 kts 288°
2026-04-21 16:51 24.90528 56.11680 11702 ft 342 kts 288°
2026-04-21 16:51 24.91302 56.09222 11371 ft 337 kts 288°
2026-04-21 16:51 24.92064 56.06798 10988 ft 334 kts 288°
2026-04-21 16:51 24.92810 56.04424 10631 ft 331 kts 288°
2026-04-21 16:52 24.93549 56.02069 10492 ft 320 kts 288°
2026-04-21 16:52 24.94267 55.99781 10348 ft 311 kts 288°
2026-04-21 16:52 24.94961 55.97568 10198 ft 301 kts 288°
2026-04-21 16:52 24.95634 55.95418 10077 ft 292 kts 288°
2026-04-21 16:53 24.96294 55.93310 9751 ft 291 kts 288°
2026-04-21 16:53 24.96954 55.91197 9402 ft 290 kts 288°
2026-04-21 16:53 24.97597 55.89143 9010 ft 275 kts 288°
2026-04-21 16:53 24.98202 55.87208 8676 ft 259 kts 288°
2026-04-21 16:54 24.98782 55.85353 8399 ft 256 kts 288°
2026-04-21 16:54 24.99364 55.83486 8108 ft 260 kts 288°
2026-04-21 16:54 25.00037 55.81606 7841 ft 267 kts 297°
2026-04-21 16:54 25.01000 55.79838 7469 ft 269 kts 302°
2026-04-21 16:55 25.02000 55.78135 7128 ft 256 kts 302°
2026-04-21 16:55 25.02940 55.76595 6854 ft 237 kts 303°
2026-04-21 16:55 25.03833 55.75092 6575 ft 231 kts 302°
2026-04-21 16:55 25.04678 55.73615 6292 ft 225 kts 301°
2026-04-21 16:56 25.05492 55.72165 6007 ft 219 kts 301°
2026-04-21 16:56 25.06277 55.70755 5735 ft 213 kts 301°
2026-04-21 16:56 25.07037 55.69386 5477 ft 206 kts 301°
2026-04-21 16:56 25.07771 55.68062 5231 ft 199 kts 301°
2026-04-21 16:57 25.08244 55.67209 5069 ft 194 kts 302°
2026-04-21 16:58 25.12576 55.59388 3829 ft 183 kts 303°
2026-04-21 16:58 25.13253 55.58166 3728 ft 190 kts 303°
2026-04-21 16:59 25.13948 55.56912 3480 ft 187 kts 303°
2026-04-21 16:59 25.14595 55.55742 3266 ft 172 kts 304°
2026-04-21 16:59 25.15196 55.54654 3057 ft 161 kts 304°
2026-04-21 16:59 25.15777 55.53605 2865 ft 159 kts 304°
2026-04-21 17:00 25.16355 55.52562 2672 ft 160 kts 304°
2026-04-21 17:00 25.16934 55.51516 2470 ft 159 kts 305°
2026-04-21 17:00 25.17323 55.50813 2334 ft 159 kts 305°
2026-04-21 17:00 25.18079 55.49449 2072 ft 155 kts 306°
2026-04-21 17:01 25.18641 55.48432 1880 ft 156 kts 306°
2026-04-21 17:01 25.19207 55.47408 1684 ft 157 kts 306°
2026-04-21 17:01 25.19772 55.46388 1480 ft 154 kts 306°
2026-04-21 17:01 25.20322 55.45393 1286 ft 151 kts 306°
2026-04-21 17:02 25.20867 55.44406 1086 ft 150 kts 306°
2026-04-21 17:02 25.21414 55.43419 905 ft 151 kts 305°
2026-04-21 17:02 25.21957 55.42437 693 ft 149 kts 303°
2026-04-21 17:02 25.22497 55.41459 509 ft 150 kts 303°
2026-04-21 17:03 25.23039 55.40488 267 ft 148 kts 302°
2026-04-21 17:03 25.23570 55.39525 63 ft 146 kts 301°
2026-04-21 17:03 25.24065 55.38634 34 ft 117 kts 301°
2026-04-21 17:03 25.24394 55.38043 35 ft 64 kts 301°
2026-04-21 17:04 25.24583 55.37672 32 ft 47 kts 289°
2026-04-21 17:04 25.24616 55.37461 31 ft 21 kts 271°
2026-04-21 17:04 25.24622 55.37296 28 ft 21 kts 281°
2026-04-21 17:04 25.24688 55.37149 28 ft 21 kts 302°
2026-04-21 17:05 25.24767 55.37009 28 ft 21 kts 302°
2026-04-21 17:05 25.24841 55.36867 28 ft 21 kts 292°
2026-04-21 17:05 25.24881 55.36708 27 ft 21 kts 289°
2026-04-21 17:05 25.24889 55.36580 27 ft 15 kts 229°
2026-04-21 17:06 25.24813 55.36524 26 ft 9 kts 211°
2026-04-21 17:06 25.24786 55.36507 31 ft 4 kts 211°
2026-04-21 17:06 25.24771 55.36496 31 ft 0 kts 211°